• în România
  • Lista ţărilor
  • Pe 7 zile
  • Temperatura apei
  • Hartă satelitară
  • Meteo pe hartă
  • Widget-uri
  • user-avatar
    Intrare

    Meteo pe oră la Kaposvar

    Astăzi, 28 Mai, Luni

    Timp Temperatura Precipitaţii Vânt Presiune Umiditate
    00:00 +21°C° 0 mm 1 m/s 749 mmHg 81%
    01:00 +20°C° 0 mm 1 m/s 749 mmHg 83%
    02:00 +20°C° 0 mm 1 m/s 749 mmHg 85%
    03:00 +19°C° 0 mm 1 m/s 749 mmHg 87%
    04:00 +18°C° 0 mm 2 m/s 749 mmHg 88%
    05:00 +19°C° 0,1 mm 2 m/s 749 mmHg 85%
    06:00 +21°C° 0,1 mm 2 m/s 750 mmHg 83%
    07:00 +23°C° 0,1 mm 2 m/s 750 mmHg 80%
    08:00 +24°C° 0,6 mm 2 m/s 750 mmHg 75%
    09:00 +26°C° 0,6 mm 3 m/s 750 mmHg 70%
    10:00 +27°C° 0,6 mm 3 m/s 750 mmHg 65%
    11:00 +28°C° 0,2 mm 3 m/s 750 mmHg 61%
    12:00 +29°C° 0,2 mm 3 m/s 750 mmHg 56%
    13:00 +29°C° 0,2 mm 2 m/s 749 mmHg 51%
    14:00 +29°C° 0 mm 2 m/s 749 mmHg 52%
    15:00 +29°C° 0 mm 2 m/s 749 mmHg 52%
    16:00 +29°C° 0 mm 2 m/s 748 mmHg 52%
    17:00 +28°C° 0 mm 2 m/s 748 mmHg 58%
    18:00 +26°C° 0 mm 2 m/s 748 mmHg 64%
    19:00 +25°C° 0 mm 2 m/s 748 mmHg 69%
    20:00 +24°C° 0 mm 2 m/s 748 mmHg 71%
    21:00 +23°C° 0 mm 2 m/s 749 mmHg 73%
    22:00 +21°C° 0 mm 2 m/s 749 mmHg 75%
    23:00 +20°C° 0 mm 2 m/s 749 mmHg 77%

    Mâine, 29 Mai, Marţi

    Timp Temperatura Precipitaţii Vânt Presiune Umiditate
    00:00 +20°C° 0 mm 2 m/s 749 mmHg 79%
    01:00 +19°C° 0 mm 2 m/s 749 mmHg 81%
    02:00 +19°C° 0 mm 2 m/s 749 mmHg 83%
    03:00 +18°C° 0 mm 2 m/s 749 mmHg 85%
    04:00 +18°C° 0 mm 2 m/s 748 mmHg 87%
    05:00 +19°C° 0 mm 2 m/s 749 mmHg 83%
    06:00 +20°C° 0 mm 3 m/s 749 mmHg 79%
    07:00 +22°C° 0 mm 3 m/s 749 mmHg 75%
    08:00 +24°C° 0 mm 3 m/s 749 mmHg 69%
    09:00 +25°C° 0 mm 4 m/s 749 mmHg 63%
    10:00 +27°C° 0 mm 4 m/s 749 mmHg 57%
    11:00 +27°C° 0 mm 5 m/s 748 mmHg 55%
    12:00 +28°C° 0 mm 5 m/s 748 mmHg 52%
    13:00 +28°C° 0 mm 5 m/s 748 mmHg 50%
    14:00 +28°C° 0 mm 5 m/s 747 mmHg 51%
    15:00 +28°C° 0 mm 5 m/s 747 mmHg 52%
    16:00 +28°C° 0 mm 5 m/s 747 mmHg 53%
    17:00 +27°C° 0 mm 4 m/s 746 mmHg 60%
    18:00 +25°C° 0 mm 4 m/s 746 mmHg 66%
    19:00 +24°C° 0 mm 3 m/s 746 mmHg 72%
    20:00 +22°C° 0 mm 3 m/s 746 mmHg 72%
    21:00 +21°C° 0 mm 3 m/s 747 mmHg 71%
    22:00 +20°C° 0 mm 3 m/s 747 mmHg 71%
    23:00 +19°C° 0 mm 3 m/s 747 mmHg 71%

    Poimâine, 30 Mai, Miercuri

    Timp Temperatura Precipitaţii Vânt Presiune Umiditate
    00:00 +19°C° 0 mm 3 m/s 746 mmHg 71%
    01:00 +18°C° 0 mm 3 m/s 746 mmHg 71%
    02:00 +18°C° 0 mm 3 m/s 746 mmHg 72%
    03:00 +18°C° 0 mm 3 m/s 746 mmHg 73%
    04:00 +17°C° 0 mm 3 m/s 746 mmHg 74%
    05:00 +18°C° 0 mm 3 m/s 746 mmHg 73%
    06:00 +19°C° 0 mm 4 m/s 746 mmHg 72%
    07:00 +20°C° 0 mm 4 m/s 746 mmHg 71%
    08:00 +21°C° 0 mm 4 m/s 746 mmHg 67%
    09:00 +23°C° 0 mm 4 m/s 746 mmHg 64%
    10:00 +26°C° 0 mm 4 m/s 746 mmHg 61%
    11:00 +27°C° 0 mm 4 m/s 746 mmHg 58%
    12:00 +28°C° 0 mm 4 m/s 746 mmHg 56%
    13:00 +28°C° 0 mm 4 m/s 745 mmHg 53%
    14:00 +29°C° 0 mm 4 m/s 745 mmHg 54%
    15:00 +29°C° 0 mm 4 m/s 745 mmHg 54%
    16:00 +29°C° 0 mm 4 m/s 744 mmHg 54%
    17:00 +27°C° 0,2 mm 3 m/s 744 mmHg 61%
    18:00 +26°C° 0,2 mm 3 m/s 744 mmHg 68%
    19:00 +24°C° 0,2 mm 2 m/s 744 mmHg 74%
    20:00 +23°C° 0,2 mm 2 m/s 744 mmHg 77%
    21:00 +21°C° 0,2 mm 2 m/s 744 mmHg 79%
    22:00 +20°C° 0,2 mm 2 m/s 744 mmHg 81%
    23:00 +19°C° 0,1 mm 2 m/s 744 mmHg 83%

    31 Mai, Joi

    Timp Temperatura Precipitaţii Vânt Presiune Umiditate
    00:00 +19°C° 0,1 mm 2 m/s 744 mmHg 84%
    01:00 +19°C° 0,1 mm 2 m/s 744 mmHg 86%
    02:00 +19°C° 0 mm 2 m/s 744 mmHg 86%
    03:00 +18°C° 0 mm 2 m/s 744 mmHg 87%
    04:00 +18°C° 0 mm 2 m/s 743 mmHg 87%
    05:00 +19°C° 0,1 mm 2 m/s 744 mmHg 85%
    06:00 +20°C° 0,1 mm 2 m/s 744 mmHg 82%
    07:00 +21°C° 0,1 mm 2 m/s 744 mmHg 79%
    08:00 +24°C° 0 mm 2 m/s 744 mmHg 73%
    09:00 +26°C° 0 mm 2 m/s 744 mmHg 67%
    10:00 +27°C° 0 mm 2 m/s 744 mmHg 60%
    11:00 +28°C° 0,1 mm 2 m/s 744 mmHg 57%
    12:00 +29°C° 0,1 mm 2 m/s 743 mmHg 53%
    13:00 +30°C° 0,1 mm 2 m/s 743 mmHg 49%
    14:00 +30°C° 0 mm 2 m/s 743 mmHg 49%
    15:00 +30°C° 0 mm 2 m/s 743 mmHg 49%
    16:00 +30°C° 0 mm 1 m/s 742 mmHg 49%
    17:00 +29°C° 0 mm 1 m/s 742 mmHg 55%
    18:00 +27°C° 0 mm 1 m/s 742 mmHg 60%
    19:00 +24°C° 0 mm 0 m/s 742 mmHg 65%
    20:00 +25°C° 0,3 mm 1 m/s 742 mmHg 69%
    21:00 +23°C° 0,3 mm 1 m/s 742 mmHg 72%
    22:00 +22°C° 0,3 mm 1 m/s 743 mmHg 75%
    23:00 +22°C° 0,6 mm 1 m/s 743 mmHg 79%

    1 Iunie, Vineri

    Timp Temperatura Precipitaţii Vânt Presiune Umiditate
    00:00 +21°C° 0,6 mm 1 m/s 743 mmHg 82%
    01:00 +21°C° 0,6 mm 1 m/s 743 mmHg 86%
    02:00 +20°C° 0,1 mm 1 m/s 743 mmHg 87%
    03:00 +19°C° 0,1 mm 2 m/s 743 mmHg 88%
    04:00 +19°C° 0,1 mm 2 m/s 743 mmHg 90%
    05:00 +19°C° 0,2 mm 2 m/s 743 mmHg 89%
    06:00 +20°C° 0,2 mm 2 m/s 743 mmHg 88%
    07:00 +21°C° 0,2 mm 2 m/s 744 mmHg 87%
    08:00 +23°C° 0,6 mm 2 m/s 744 mmHg 82%
    09:00 +24°C° 0,6 mm 2 m/s 744 mmHg 78%
    10:00 +25°C° 0,6 mm 2 m/s 744 mmHg 74%
    11:00 +25°C° 1,4 mm 2 m/s 744 mmHg 73%
    12:00 +25°C° 1,4 mm 3 m/s 744 mmHg 73%
    13:00 +25°C° 1,4 mm 3 m/s 744 mmHg 72%
    14:00 +25°C° 1,4 mm 3 m/s 744 mmHg 74%
    15:00 +25°C° 1,4 mm 3 m/s 744 mmHg 76%
    16:00 +24°C° 1,4 mm 3 m/s 744 mmHg 79%
    17:00 +23°C° 0,5 mm 2 m/s 745 mmHg 80%
    18:00 +21°C° 0,5 mm 2 m/s 745 mmHg 82%
    19:00 +21°C° 0,5 mm 2 m/s 746 mmHg 83%
    20:00 +19°C° 0,1 mm 3 m/s 746 mmHg 82%
    21:00 +18°C° 0,1 mm 3 m/s 746 mmHg 81%
    22:00 +17°C° 0,1 mm 3 m/s 747 mmHg 80%
    23:00 +17°C° 0 mm 3 m/s 747 mmHg 80%

    2 Iunie, Sâmbătă

    Timp Temperatura Precipitaţii Vânt Presiune Umiditate
    00:00 +16°C° 0 mm 3 m/s 747 mmHg 80%
    01:00 +14°C° 0 mm 3 m/s 747 mmHg 81%
    02:00 +14°C° 0 mm 3 m/s 747 mmHg 81%
    03:00 +13°C° 0 mm 3 m/s 747 mmHg 81%
    04:00 +12°C° 0 mm 3 m/s 748 mmHg 80%
    05:00 +14°C° 0 mm 3 m/s 748 mmHg 77%
    06:00 +15°C° 0 mm 4 m/s 748 mmHg 73%
    07:00 +17°C° 0 mm 4 m/s 749 mmHg 69%
    08:00 +17°C° 0 mm 5 m/s 749 mmHg 65%
    09:00 +20°C° 0 mm 5 m/s 749 mmHg 60%
    10:00 +21°C° 0 mm 5 m/s 749 mmHg 56%
    11:00 +22°C° 0 mm 5 m/s 749 mmHg 53%
    12:00 +23°C° 0 mm 5 m/s 749 mmHg 51%
    13:00 +23°C° 0 mm 5 m/s 748 mmHg 49%
    14:00 +23°C° 0 mm 5 m/s 748 mmHg 50%
    15:00 +23°C° 0 mm 5 m/s 748 mmHg 50%
    16:00 +23°C° 0 mm 5 m/s 748 mmHg 51%
    17:00 +22°C° 0 mm 4 m/s 748 mmHg 57%
    18:00 +20°C° 0 mm 3 m/s 749 mmHg 63%
    19:00 +19°C° 0 mm 3 m/s 749 mmHg 69%
    20:00 +18°C° 0 mm 3 m/s 749 mmHg 69%
    21:00 +16°C° 0 mm 3 m/s 749 mmHg 69%
    22:00 +15°C° 0 mm 2 m/s 750 mmHg 69%
    23:00 +14°C° 0 mm 3 m/s 750 mmHg 69%
    Arată mai mult